Regional Weather Roundup
Issued by NWS Boston, MA

Current Version | Previous Version | Text Only | Print | Product List | Glossary Off
Versions: 1 2 3 4 5 6 7 8 9 10 11 12 13 14 15 16 17 18 19 20 21 22 23 24 25 26 27 28 29 30 31 32 33 34 35 36 37 38 39 40 41 42 43 44 45 46 47 48 49 50
000 ASUS41 KBOX 222210 RWRBOX REGIONAL WEATHER ROUNDUP NATIONAL WEATHER SERVICE BOSTON/NORTON MA 600 PM EDT FRI JUN 22 2018 NOTE: "FAIR" INDICATES FEW OR NO CLOUDS BELOW 12,000 FEET WITH NO SIGNIFICANT WEATHER AND/OR OBSTRUCTIONS TO VISIBILITY. MAZALL-222300- EASTERN MASSACHUSETTS CITY SKY/WX TMP DP RH WIND PRES REMARKS BOSTON PTSUNNY 69 54 58 SE12 30.03F BEVERLY FAIR 66 53 63 SE9 30.04F LAWRENCE FAIR 73 51 46 SE7 30.05F BEDFORD PTSUNNY 72 55 55 E10 30.01F BLUE HILL N/A 69 52 54 SE13G18 30.03F NORWOOD FAIR 74 54 49 S12 30.02S MARSHFIELD FAIR 70 48 46 SE9 30.05S PLYMOUTH FAIR 69 45 41 SE8 30.06S TAUNTON FAIR 69 54 58 S7 30.05S NEW BEDFORD FAIR 67 50 54 SE9 30.05S $$ MAZALL-222300- CAPE COD AND THE ISLANDS CITY SKY/WX TMP DP RH WIND PRES REMARKS FALMOUTH FAIR 64 50 59 SE7 30.07S HYANNIS FAIR 66 46 48 S12 30.06S CHATHAM FAIR 65 47 52 SE7 30.07F PROVINCETOWN FAIR 68 48 48 S8 30.07S NANTUCKET FAIR 64 47 53 E13 30.06S MARTHAS VNYRD FAIR 68 46 45 SE12 30.06S $$ MAZALL-222300- CENTRAL AND WESTERN MASSACHUSETTS CITY SKY/WX TMP DP RH WIND PRES REMARKS WORCESTER PTSUNNY 70 57 63 S15 30.04S FITCHBURG FAIR 74 58 57 E9 30.02F ORANGE FAIR 76 52 43 S7 30.01F SPRINGFIELD NOT AVBL WESTFIELD FAIR 77 55 46 S8 29.99F NORTH ADAMS FAIR 75 53 46 SE9 29.98F PITTSFIELD FAIR 74 53 48 S7 30.00F $$ RIZALL-222300- RHODE ISLAND CITY SKY/WX TMP DP RH WIND PRES REMARKS PROVIDENCE PTSUNNY 67 52 58 S13 30.06R NEWPORT FAIR 64 50 60 SE9 30.06S BLOCK ISLAND FAIR 62 59 90 E6 30.06S SMITHFIELD FAIR 67 59 75 VRB7 30.06R WESTERLY CLOUDY 64 61 90 E9 30.07R $$ CTZALL-222300- CONNECTICUT CITY SKY/WX TMP DP RH WIND PRES REMARKS BRADLEY INTL PTSUNNY 77 60 55 S12 30.01S HARTFORD FAIR 74 57 55 S9 30.01S BRIDGEPORT FAIR 69 62 78 E10 30.02F DANBURY FAIR 71 54 54 SE8 30.02F GROTON CLOUDY 63 58 83 E9 30.05R NEW HAVEN FAIR 69 61 75 SE10 30.03F CHESTER FAIR 70 59 68 SE7 30.04F MERIDEN FAIR 72 53 51 S8 30.01F WILLIMANTIC FAIR 73 53 49 S8 30.03S OXFORD FAIR 70 57 63 SE9 30.03F $$ MEZ002-015-021-024-NHZ003-005-008-011-012-014-VTZ005-008-222300- NORTHERN NEW ENGLAND CITY SKY/WX TMP DP RH WIND PRES REMARKS PORTLAND ME PTSUNNY 66 48 52 S14G22 30.05F BANGOR ME FAIR 72 45 37 S9 30.01F CONCORD NH FAIR 74 53 48 S9 30.01S MANCHESTER NH PTSUNNY 77 49 37 SE14 30.00F NASHUA NH FAIR 75 51 43 SE13G18 30.02F PORTSMOUTH NH PTSUNNY 66 50 57 SE13 30.03F JAFFREY NH FAIR 76 52 43 S7 30.03F KEENE NH FAIR 78 53 41 S8 30.00S BURLINGTON VT PTSUNNY 79 40 24 S7 29.95F MT. WASHINGTON PTSUNNY 54 37 54 W18 N/A $$ NYZ052-076-222300- EASTERN NEW YORK CITY SKY/WX TMP DP RH WIND PRES REMARKS ALBANY PTSUNNY 79 55 43 S12 29.97S NEW YORK CITY PTSUNNY 73 55 53 SE12 29.99S $$ ANZALL-222300- MARINE OBSERVATIONS STATION/POSITION TIME TEMP WIND PRES VSBY WAVE AIR SEA DIR/SP/G HT/PER (UTC) (F) (DEG/KT/KT) (MB) (MI) (FT/S) BOSTON BUOY 2150 65 63 130/ 12/ 14 1017.1F 1/ 8 BUZZARDS BAY 2100 60 120/ 5/ 6 1018.6R NANTUCKET SOUND 2150 62 66 100/ 8/ 10 1017.8F 1 MASS BAY-STELLWA 2104 60 62 1016.3F 1/ 8 ISLE OF SHOALS 2200 61 150/ 14/ 15 1017.0F S OF BLOCK IS 2143 63 N/A 2/ 5 $$ ......................KEY......................... SKY/WX - SKY CONDITION/PRESENT WEATHER TMP - TEMPERATURE IN FAHRENHEIT DWPT - DEWPOINT IN FAHRENHEIT RH - RELATIVE HUMIDITY IN PERCENT WIND - DIRECTION AND SPEED IN MPH PRES - MEAN SEA LEVEL PRESSURE IN INCHES OF HG WCI - WIND CHILL INDEX VSB - VISIBILITY IN MILES HX - HEAT INDEX TC - TEMPERATURE IN CELSIUS VRB - VARIABLE WIND DIRECTION N/A - NOT AVAILABLE

USA.gov is the U.S. government's official web portal to all federal, state and local government web resources and services.